Tracking 35274 objects as of 12-Sep-2026
HD Live streaming from Space Station
objects crossing your sky now

FLOCK 4S 5


FLOCK 4S 5 is no longer on orbit
FLOCK 4S 5 is classified as:


NORAD ID: 47515
Int'l Code: 2021-006DF
Launch date: January 24, 2021
Source: United States (US)
Launch site: AIR FORCE EASTERN TEST RANGE (AFETR)
Decay date: 2024-10-18
Your satellite tracking list
Your tracking list is empty




NASA's NSSDC Master Catalog

Two Line Element Set (TLE):
1 47515U 21006DF  24292.07750870  .19022971  24886-5  50072-3 0  9995
2 47515  97.2883   0.3891 0009863 275.2200  84.7977 16.45060809208186
Source of the keplerian elements: AFSPC